VHLZG YBWW-YTWB

Flight info

Callsign VHLZG
Flight time 0h -16m
Altitude 5500
Route DCT
Aircraft C172/L-SDFG/S

Departure

Time 2026-05-07 16:07
Airport Toowoomba Wellcamp Airport (YBWW)

Arrival

Time 2026-05-07 15:50
Airport Toowoomba Airport (YTWB)
Time Latitude Longitude Altitude Speed Heading
2026-05-07 15:50 -27.56428 151.79771 1457 ft 0 kts 45°
2026-05-07 15:57 -27.56426 151.79773 1458 ft 0 kts 45°
2026-05-07 15:57 -27.56423 151.79776 1458 ft 0 kts 38°
2026-05-07 15:57 -27.56413 151.79767 1458 ft 4 kts 320°
2026-05-07 15:58 -27.56396 151.79761 1459 ft 3 kts
2026-05-07 15:58 -27.56355 151.79759 1462 ft 4 kts 20°
2026-05-07 15:58 -27.56313 151.79790 1464 ft 7 kts 38°
2026-05-07 15:58 -27.56280 151.79825 1468 ft 5 kts 42°
2026-05-07 15:59 -27.56267 151.79848 1470 ft 3 kts 83°
2026-05-07 15:59 -27.56290 151.79901 1471 ft 9 kts 134°
2026-05-07 15:59 -27.56345 151.79970 1473 ft 13 kts 132°
2026-05-07 15:59 -27.56421 151.80063 1474 ft 18 kts 133°
2026-05-07 16:00 -27.56508 151.80170 1480 ft 17 kts 134°
2026-05-07 16:00 -27.56586 151.80264 1485 ft 15 kts 133°
2026-05-07 16:00 -27.56660 151.80353 1490 ft 14 kts 133°
2026-05-07 16:00 -27.56712 151.80437 1494 ft 12 kts 102°
2026-05-07 16:01 -27.56687 151.80510 1496 ft 5 kts 43°
2026-05-07 16:01 -27.56680 151.80518 1496 ft 0 kts 34°
2026-05-07 16:04 -27.56679 151.80519 1496 ft 1 kts 37°
2026-05-07 16:04 -27.56658 151.80536 1496 ft 6 kts 32°
2026-05-07 16:04 -27.56611 151.80560 1498 ft 7 kts
2026-05-07 16:05 -27.56598 151.80554 1498 ft 0 kts 311°
2026-05-07 16:06 -27.56597 151.80553 1498 ft 1 kts 313°
2026-05-07 16:06 -27.56465 151.80389 1493 ft 54 kts 316°
2026-05-07 16:06 -27.56160 151.80048 1634 ft 63 kts 311°
2026-05-07 16:06 -27.55807 151.79684 1768 ft 73 kts 309°
2026-05-07 16:07 -27.55427 151.79275 1982 ft 76 kts 309°
2026-05-07 16:07 -27.55057 151.78865 2216 ft 74 kts 306°
2026-05-07 16:07 -27.54710 151.78439 2428 ft 73 kts 303°
2026-05-07 16:07 -27.54355 151.78006 2640 ft 73 kts 302°
2026-05-07 16:08 -27.54030 151.77562 2842 ft 74 kts 305°
2026-05-07 16:08 -27.53575 151.77280 3037 ft 83 kts 348°
2026-05-07 16:08 -27.53001 151.77393 3235 ft 86 kts 18°
2026-05-07 16:08 -27.52427 151.77635 3425 ft 87 kts 18°
2026-05-07 16:09 -27.51852 151.77882 3598 ft 90 kts 17°
2026-05-07 16:09 -27.51269 151.78125 3792 ft 91 kts 19°
2026-05-07 16:09 -27.50662 151.78363 3975 ft 92 kts 13°
2026-05-07 16:09 -27.50041 151.78558 4161 ft 94 kts 22°
2026-05-07 16:10 -27.49431 151.78818 4338 ft 94 kts 18°
2026-05-07 16:10 -27.48811 151.79057 4519 ft 95 kts 18°
2026-05-07 16:10 -27.48185 151.79298 4697 ft 95 kts 17°
2026-05-07 16:10 -27.47556 151.79504 4881 ft 96 kts 15°
2026-05-07 16:11 -27.46907 151.79703 5041 ft 97 kts 12°
2026-05-07 16:11 -27.46246 151.79915 5211 ft 98 kts 15°
2026-05-07 16:11 -27.45584 151.80104 5382 ft 97 kts
2026-05-07 16:11 -27.44940 151.79919 5504 ft 97 kts 320°
2026-05-07 16:12 -27.44340 151.79459 5531 ft 108 kts 316°
2026-05-07 16:12 -27.43992 151.79160 5503 ft 110 kts 309°
2026-05-07 16:12 -27.43780 151.78952 5484 ft 110 kts 307°
2026-05-07 16:13 -27.43248 151.78322 5464 ft 108 kts 301°
2026-05-07 16:13 -27.42811 151.77658 5453 ft 103 kts 288°
2026-05-07 16:13 -27.42442 151.76952 5462 ft 109 kts 296°
2026-05-07 16:13 -27.41911 151.76320 5490 ft 110 kts 303°
2026-05-07 16:14 -27.41370 151.75694 5508 ft 109 kts 304°
2026-05-07 16:14 -27.40827 151.75082 5531 ft 110 kts 304°
2026-05-07 16:14 -27.40275 151.74437 5494 ft 115 kts 303°
2026-05-07 16:14 -27.39647 151.73886 5510 ft 120 kts 332°
2026-05-07 16:15 -27.38828 151.73704 5528 ft 119 kts 348°
2026-05-07 16:15 -27.38000 151.73528 5480 ft 122 kts 339°
2026-05-07 16:15 -27.37193 151.73273 5470 ft 122 kts 342°
2026-05-07 16:15 -27.36352 151.73102 5458 ft 121 kts 344°
2026-05-07 16:16 -27.35515 151.72903 5509 ft 119 kts 338°
2026-05-07 16:16 -27.34696 151.72704 5552 ft 124 kts 348°
2026-05-07 16:16 -27.33819 151.72600 5556 ft 129 kts 350°
2026-05-07 16:16 -27.32914 151.72501 5542 ft 129 kts 350°
2026-05-07 16:17 -27.32015 151.72403 5505 ft 133 kts 351°
2026-05-07 16:17 -27.31049 151.72304 5428 ft 144 kts 350°
2026-05-07 16:17 -27.30071 151.72177 5480 ft 136 kts 348°
2026-05-07 16:17 -27.29140 151.72032 5470 ft 133 kts 346°
2026-05-07 16:18 -27.28237 151.71869 5460 ft 130 kts 345°
2026-05-07 16:18 -27.27333 151.71698 5428 ft 132 kts 345°
2026-05-07 16:18 -27.26430 151.71524 5437 ft 129 kts 345°
2026-05-07 16:18 -27.25553 151.71343 5466 ft 125 kts 343°
2026-05-07 16:19 -27.24724 151.71069 5447 ft 122 kts 320°
2026-05-07 16:19 -27.24254 151.70369 5446 ft 106 kts 274°
2026-05-07 16:19 -27.24235 151.69585 5468 ft 98 kts 256°
2026-05-07 16:19 -27.24298 151.68811 5455 ft 98 kts 254°
2026-05-07 16:20 -27.24354 151.68043 5479 ft 97 kts 255°
2026-05-07 16:20 -27.24416 151.67273 5471 ft 99 kts 255°
2026-05-07 16:20 -27.24497 151.66502 5488 ft 96 kts 248°
2026-05-07 16:20 -27.24672 151.65785 5489 ft 96 kts 244°
2026-05-07 16:21 -27.24872 151.65054 5488 ft 97 kts 242°
2026-05-07 16:21 -27.25122 151.64349 5489 ft 97 kts 238°
2026-05-07 16:21 -27.25483 151.63734 5490 ft 93 kts 225°
2026-05-07 16:21 -27.25892 151.63158 5479 ft 94 kts 224°
2026-05-07 16:22 -27.26304 151.62582 5480 ft 94 kts 225°
2026-05-07 16:22 -27.26708 151.61997 5476 ft 94 kts 225°
2026-05-07 16:22 -27.27118 151.61423 5484 ft 93 kts 225°
2026-05-07 16:22 -27.27551 151.60890 5494 ft 91 kts 219°
2026-05-07 16:23 -27.28008 151.60375 5492 ft 92 kts 220°
2026-05-07 16:23 -27.28457 151.59856 5493 ft 92 kts 220°
2026-05-07 16:23 -27.28917 151.59346 5505 ft 91 kts 218°
2026-05-07 16:23 -27.29411 151.58899 5481 ft 92 kts 211°
2026-05-07 16:24 -27.29948 151.58489 5473 ft 92 kts 211°
2026-05-07 16:24 -27.30483 151.58090 5489 ft 89 kts 209°
2026-05-07 16:24 -27.31000 151.57709 5501 ft 89 kts 210°
2026-05-07 16:24 -27.31534 151.57320 5479 ft 91 kts 206°
2026-05-07 16:25 -27.32115 151.57056 5480 ft 90 kts 199°
2026-05-07 16:25 -27.32701 151.56799 5474 ft 90 kts 201°
2026-05-07 16:25 -27.33293 151.56538 5473 ft 90 kts 200°
2026-05-07 16:25 -27.33888 151.56293 5466 ft 91 kts 200°
2026-05-07 16:26 -27.34472 151.56047 5498 ft 88 kts 200°
2026-05-07 16:26 -27.35049 151.55783 5496 ft 89 kts 201°
2026-05-07 16:26 -27.35635 151.55502 5495 ft 90 kts 199°
2026-05-07 16:26 -27.36049 151.55460 5470 ft 94 kts 172°
2026-05-07 16:27 -27.36682 151.56171 5487 ft 107 kts 122°
2026-05-07 16:27 -27.36862 151.57011 5506 ft 108 kts 112°
2026-05-07 16:27 -27.37065 151.57835 5483 ft 109 kts 117°
2026-05-07 16:27 -27.37245 151.58696 5473 ft 112 kts 110°
2026-05-07 16:28 -27.37402 151.59547 5487 ft 109 kts 115°
2026-05-07 16:28 -27.37564 151.60399 5466 ft 112 kts 111°
2026-05-07 16:28 -27.37693 151.61273 5444 ft 114 kts 107°
2026-05-07 16:28 -27.37741 151.62181 5468 ft 112 kts 104°
2026-05-07 16:29 -27.37890 151.63025 5471 ft 109 kts 116°
2026-05-07 16:29 -27.38073 151.63872 5457 ft 113 kts 110°
2026-05-07 16:29 -27.38173 151.64755 5463 ft 113 kts 108°
2026-05-07 16:29 -27.38265 151.65649 5456 ft 112 kts 110°
2026-05-07 16:30 -27.38430 151.66490 5472 ft 110 kts 114°
2026-05-07 16:30 -27.38610 151.67337 5470 ft 109 kts 114°
2026-05-07 16:30 -27.38807 151.68162 5468 ft 109 kts 116°
2026-05-07 16:30 -27.39005 151.68993 5488 ft 107 kts 116°
2026-05-07 16:31 -27.39203 151.69800 5527 ft 105 kts 116°
2026-05-07 16:31 -27.39392 151.70609 5545 ft 105 kts 116°
2026-05-07 16:31 -27.39611 151.71382 5567 ft 104 kts 121°
2026-05-07 16:31 -27.39881 151.72182 5480 ft 111 kts 121°
2026-05-07 16:32 -27.40181 151.72984 5486 ft 108 kts 124°
2026-05-07 16:32 -27.40450 151.73791 5481 ft 112 kts 115°
2026-05-07 16:32 -27.40624 151.74651 5486 ft 112 kts 111°
2026-05-07 16:32 -27.40726 151.75552 5470 ft 115 kts 105°
2026-05-07 16:33 -27.40853 151.76428 5455 ft 112 kts 113°
2026-05-07 16:33 -27.41097 151.77263 5440 ft 111 kts 120°
2026-05-07 16:33 -27.41366 151.78081 5441 ft 110 kts 120°
2026-05-07 16:33 -27.41585 151.78932 5401 ft 118 kts 102°
2026-05-07 16:34 -27.41302 151.79831 5408 ft 129 kts 56°
2026-05-07 16:34 -27.40526 151.80339 5400 ft 132 kts
2026-05-07 16:34 -27.39671 151.80106 5391 ft 124 kts 317°
2026-05-07 16:34 -27.39242 151.79352 5330 ft 110 kts 266°
2026-05-07 16:35 -27.39224 151.78540 5448 ft 100 kts 265°
2026-05-07 16:35 -27.39199 151.77745 5349 ft 106 kts 253°
2026-05-07 16:35 -27.39323 151.76965 5387 ft 99 kts 243°
2026-05-07 16:35 -27.39545 151.76259 5449 ft 93 kts 241°
2026-05-07 16:36 -27.39761 151.75558 5464 ft 96 kts 250°
2026-05-07 16:36 -27.39860 151.74797 5473 ft 98 kts 253°
2026-05-07 16:36 -27.39936 151.74042 5496 ft 97 kts 252°
2026-05-07 16:36 -27.39880 151.73283 5568 ft 104 kts 283°
2026-05-07 16:37 -27.39300 151.72708 5555 ft 122 kts 332°
2026-05-07 16:37 -27.38435 151.72690 5541 ft 130 kts 19°
2026-05-07 16:37 -27.37766 151.73323 5521 ft 125 kts 69°
2026-05-07 16:37 -27.37658 151.74232 5494 ft 113 kts 111°
2026-05-07 16:38 -27.37900 151.75046 5506 ft 107 kts 121°
2026-05-07 16:38 -27.38162 151.75850 5486 ft 109 kts 120°
2026-05-07 16:38 -27.38424 151.76657 5486 ft 108 kts 121°
2026-05-07 16:38 -27.38690 151.77455 5474 ft 109 kts 121°
2026-05-07 16:39 -27.38983 151.78250 5501 ft 100 kts 135°
2026-05-07 16:39 -27.39515 151.78577 5574 ft 83 kts 184°
2026-05-07 16:39 -27.40035 151.78290 5556 ft 90 kts 223°
2026-05-07 16:39 -27.40210 151.77553 5508 ft 107 kts 265°
2026-05-07 16:40 -27.39955 151.76712 5487 ft 114 kts 279°
2026-05-07 16:40 -27.39720 151.75850 5442 ft 112 kts 271°
2026-05-07 16:40 -27.39565 151.75018 5501 ft 107 kts 272°
2026-05-07 16:40 -27.39442 151.74178 5486 ft 107 kts 268°
2026-05-07 16:41 -27.39343 151.73335 5454 ft 109 kts 266°
2026-05-07 16:41 -27.39218 151.72472 5452 ft 111 kts 274°
2026-05-07 16:41 -27.38715 151.71780 5497 ft 123 kts 324°
2026-05-07 16:41 -27.37838 151.71686 5460 ft 133 kts 13°
2026-05-07 16:42 -27.37103 151.72249 5464 ft 127 kts 61°
2026-05-07 16:42 -27.36896 151.73148 5445 ft 113 kts 107°
2026-05-07 16:42 -27.37161 151.73946 5450 ft 107 kts 123°
2026-05-07 16:42 -27.37485 151.74674 5507 ft 100 kts 132°
2026-05-07 16:43 -27.37854 151.75363 5492 ft 102 kts 131°
2026-05-07 16:43 -27.38216 151.76060 5486 ft 103 kts 131°
2026-05-07 16:43 -27.38585 151.76765 5515 ft 101 kts 133°
2026-05-07 16:43 -27.38971 151.77438 5494 ft 103 kts 134°
2026-05-07 16:44 -27.39528 151.77817 5505 ft 89 kts 181°
2026-05-07 16:44 -27.40073 151.77508 5515 ft 92 kts 226°
2026-05-07 16:44 -27.40209 151.76761 5467 ft 108 kts 269°
2026-05-07 16:44 -27.39976 151.75940 5489 ft 108 kts 272°
2026-05-07 16:45 -27.39883 151.75085 5414 ft 109 kts 259°
2026-05-07 16:45 -27.39910 151.74257 5481 ft 102 kts 258°
2026-05-07 16:45 -27.39836 151.73439 5487 ft 111 kts 283°
2026-05-07 16:45 -27.39249 151.72800 5473 ft 125 kts 329°
2026-05-07 16:46 -27.38375 151.72742 5474 ft 130 kts 16°
2026-05-07 16:46 -27.37635 151.73340 5458 ft 127 kts 62°
2026-05-07 16:46 -27.37452 151.74254 5416 ft 115 kts 109°
2026-05-07 16:46 -27.37803 151.74997 5403 ft 104 kts 140°
2026-05-07 16:47 -27.38294 151.75601 5411 ft 102 kts 143°
2026-05-07 16:47 -27.38780 151.76199 5428 ft 102 kts 141°
2026-05-07 16:47 -27.39252 151.76790 5444 ft 100 kts 141°
2026-05-07 16:47 -27.39729 151.77356 5471 ft 98 kts 146°
2026-05-07 16:48 -27.40271 151.77849 5431 ft 100 kts 149°
2026-05-07 16:48 -27.40803 151.78343 5476 ft 96 kts 149°
2026-05-07 16:48 -27.41294 151.78868 5475 ft 99 kts 141°
2026-05-07 16:48 -27.41708 151.79536 5438 ft 107 kts 129°
2026-05-07 16:49 -27.42066 151.80267 5424 ft 107 kts 129°
2026-05-07 16:49 -27.42391 151.81049 5434 ft 107 kts 122°
2026-05-07 16:49 -27.42655 151.81839 5427 ft 109 kts 121°
2026-05-07 16:49 -27.42913 151.82617 5403 ft 98 kts 123°
2026-05-07 16:50 -27.43156 151.83301 5240 ft 88 kts 125°
2026-05-07 16:50 -27.43374 151.83940 5083 ft 83 kts 125°
2026-05-07 16:50 -27.43593 151.84547 4903 ft 84 kts 125°
2026-05-07 16:50 -27.43809 151.85176 4701 ft 89 kts 123°
2026-05-07 16:51 -27.44042 151.85852 4516 ft 93 kts 122°
2026-05-07 16:51 -27.44284 151.86531 4381 ft 91 kts 124°
2026-05-07 16:51 -27.44516 151.87196 4236 ft 92 kts 120°
2026-05-07 16:51 -27.44754 151.87904 4046 ft 95 kts 121°
2026-05-07 16:52 -27.44999 151.88623 3883 ft 96 kts 120°
2026-05-07 16:52 -27.45249 151.89333 3711 ft 97 kts 123°
2026-05-07 16:52 -27.45492 151.90039 3574 ft 96 kts 119°
2026-05-07 16:52 -27.45717 151.90739 3523 ft 92 kts 119°
2026-05-07 16:53 -27.45918 151.91402 3512 ft 90 kts 117°
2026-05-07 16:53 -27.46247 151.91950 3480 ft 81 kts 152°
2026-05-07 16:53 -27.46761 151.92206 3478 ft 79 kts 170°
2026-05-07 16:53 -27.47292 151.92349 3552 ft 75 kts 174°
2026-05-07 16:54 -27.47812 151.92476 3594 ft 76 kts 177°
2026-05-07 16:54 -27.48356 151.92526 3584 ft 83 kts 182°
2026-05-07 16:54 -27.48905 151.92526 3702 ft 74 kts 185°
2026-05-07 16:54 -27.49444 151.92517 3715 ft 78 kts 185°
2026-05-07 16:55 -27.50031 151.92480 3685 ft 80 kts 187°
2026-05-07 16:55 -27.50561 151.92430 3552 ft 72 kts 190°
2026-05-07 16:55 -27.51059 151.92352 3386 ft 71 kts 193°
2026-05-07 16:55 -27.51557 151.92248 3226 ft 75 kts 194°
2026-05-07 16:56 -27.52084 151.92113 3112 ft 79 kts 196°
2026-05-07 16:56 -27.52640 151.91954 2988 ft 82 kts 196°
2026-05-07 16:56 -27.53557 151.92432 2847 ft 83 kts 124°
2026-05-07 16:57 -27.53786 151.93030 2814 ft 82 kts 110°
2026-05-07 16:57 -27.53947 151.93665 2786 ft 78 kts 108°
2026-05-07 16:57 -27.54109 151.94203 2747 ft 67 kts 135°
2026-05-07 16:57 -27.54491 151.94389 2681 ft 58 kts 189°
2026-05-07 16:58 -27.54871 151.94176 2579 ft 62 kts 212°
2026-05-07 16:58 -27.55070 151.93797 2517 ft 60 kts 274°
2026-05-07 16:58 -27.54937 151.93306 2373 ft 64 kts 288°
2026-05-07 16:58 -27.54758 151.92860 2238 ft 59 kts 290°
2026-05-07 16:59 -27.54574 151.92444 2121 ft 57 kts 290°
2026-05-07 16:59 -27.54408 151.92061 2085 ft 50 kts 295°
2026-05-07 16:59 -27.54211 151.91646 2161 ft 65 kts 295°
2026-05-07 16:59 -27.53965 151.91208 2344 ft 65 kts 298°
2026-05-07 17:00 -27.53712 151.90768 2485 ft 70 kts 297°
2026-05-07 17:00 -27.53423 151.90268 2648 ft 80 kts 309°
2026-05-07 17:00 -27.52865 151.90096 2836 ft 88 kts 11°
2026-05-07 17:00 -27.52307 151.90420 3012 ft 93 kts 29°
2026-05-07 17:01 -27.51835 151.90866 3113 ft 86 kts 66°
2026-05-07 17:01 -27.51843 151.91521 3145 ft 83 kts 119°
2026-05-07 17:01 -27.52129 151.92101 3214 ft 86 kts 124°
2026-05-07 17:01 -27.52484 151.92706 3180 ft 96 kts 131°
2026-05-07 17:02 -27.52895 151.93329 3193 ft 97 kts 124°
2026-05-07 17:02 -27.53233 151.93933 3248 ft 79 kts 126°
2026-05-07 17:02 -27.53508 151.94478 3183 ft 77 kts 121°
2026-05-07 17:02 -27.53793 151.94978 3103 ft 72 kts 147°
2026-05-07 17:03 -27.54234 151.95030 3014 ft 64 kts 207°
2026-05-07 17:03 -27.54612 151.94751 2914 ft 64 kts 216°
2026-05-07 17:03 -27.54944 151.94432 2784 ft 58 kts 225°
2026-05-07 17:03 -27.55155 151.94063 2626 ft 56 kts 260°
2026-05-07 17:04 -27.55076 151.93602 2435 ft 61 kts 290°
2026-05-07 17:04 -27.54902 151.93175 2294 ft 54 kts 289°
2026-05-07 17:04 -27.54732 151.92799 2201 ft 52 kts 290°
2026-05-07 17:04 -27.54565 151.92421 2116 ft 53 kts 289°
2026-05-07 17:05 -27.54404 151.92055 2085 ft 42 kts 299°
2026-05-07 17:05 -27.54344 151.91911 2085 ft 10 kts 265°
2026-05-07 17:05 -27.54390 151.91873 2085 ft 5 kts 205°
2026-05-07 17:05 -27.54410 151.91843 2084 ft 6 kts 271°
2026-05-07 17:06 -27.54417 151.91815 2084 ft 3 kts 153°
2026-05-07 17:06 -27.54419 151.91821 2084 ft 0 kts 101°